This demonstration page uses our WeatherBlox Daily Observations layout. Learn more.

Left ArrowRight Arrow

31.84235, -102.49876

Hourly Observations for June 30, 2022

Temp ( °F °C ) Dew Point ( °F °C ) Humidity (%) Winds ( mph kmh ) Pressure ( in mb ) Visibility ( mi km ) Precip ( " mm )
12:53 am 00:53 Clear 79 26.1 60 15.6 52 52 SE 8 13 30.02 1017 10 16 0.00 0.00
1:53 am 01:53 Clear 78 25.6 60 15.6 54 54 SSE 6 9 30.02 1017 10 16 0.00 0.00
2:53 am 02:53 Clear 78 25.6 59 15 52 52 S 8 13 30.01 1016 10 16 0.00 0.00
3:53 am 03:53 Clear 75 23.9 60 15.6 60 60 SSE 6 9 30.00 1016 10 16 0.00 0.00
4:53 am 04:53 Clear 74 23.3 59 15 60 60 SSE 6 9 30.00 1016 10 16 0.00 0.00
5:53 am 05:53 Clear 75 23.9 59 15 58 58 S 8 13 29.99 1016 10 16 0.00 0.00
6:53 am 06:53 Sunny 74 23.3 59 15 60 60 S 7 11 29.99 1016 10 16 0.00 0.00
7:53 am 07:53 Sunny 77 25 56 13.3 48 48 S 9 15 29.99 1016 10 16 0.00 0.00
8:53 am 08:53 Sunny 80 26.7 57 13.9 45 45 SSW 12 19 30.00 1016 10 16 0.00 0.00
9:53 am 09:53 Sunny 84 28.9 58 14.4 41 41 S 13 20 29.99 1016 10 16 0.00 0.00
10:53 am 10:53 Sunny 88 31.1 59 15 38 38 SSW 12 19 29.97 1015 10 16 0.00 0.00
11:53 am 11:53 Sunny 89 31.7 58 14.4 35 35 S 9 15 29.96 1015 10 16 0.00 0.00
12:53 pm 12:53 Mostly Sunny 90 32.2 55 12.8 31 31 Calm 29.94 1014 10 16 0.00 0.00
1:53 pm 13:53 Mostly Sunny 92 33.3 55 12.8 29 29 undefined N/A 29.92 1013 10 16 0.00 0.00
2:53 pm 14:53 Sunny 94 34.4 52 11.1 24 24 SSE 9 15 29.89 1012 10 16 0.00 0.00
3:53 pm 15:53 Sunny 94 34.4 50 10 22 22 SSE 8 13 29.88 1012 10 16 0.00 0.00
4:53 pm 16:53 Sunny 95 35 48 8.9 20 20 VRB 3 6 29.85 1011 10 16 0.00 0.00
5:53 pm 17:53 Sunny 95 35 50 10 22 22 SSE 13 20 29.84 1011 10 16 0.00 0.00
6:53 pm 18:53 Sunny 95 35 48 8.9 20 20 SSE 9 15 29.83 1010 10 16 0.00 0.00
7:53 pm 19:53 Sunny 94 34.4 47 8.3 20 20 E 7 11 29.82 1010 10 16 0.00 0.00
8:53 pm 20:53 Sunny 91 32.8 47 8.3 22 22 ESE 7 11 29.82 1010 10 16 0.00 0.00
9:53 pm 21:53 Clear 88 31.1 48 8.9 25 25 ESE 7 11 29.83 1010 10 16 0.00 0.00
10:53 pm 22:53 Clear 86 30 50 10 29 29 S 8 13 29.85 1011 10 16 0.00 0.00
11:53 pm 23:53 Clear 85 29.4 55 12.8 36 36 S 13 20 29.86 1011 10 16 0.00 0.00

Powered by AerisWeather